Weather History for K54J - December, 2013

Change the Weather History Date:

Sunday, December 15, 2013

  Actual Average (KCEW) Record (KCEW)
Temperature  
Mean Temperature 46 °F -  
Max Temperature 58 °F 64 °F 77 °F (1975)
Min Temperature 33 °F 40 °F 21 °F (2010)
Degree Days  
Heating Degree Days 19    
Moisture  
Dew Point 39 °F    
Average Humidity 83    
Maximum Humidity 97    
Minimum Humidity 64    
Precipitation  
Precipitation 0.04 in - - ()
Sea Level Pressure  
Sea Level Pressure 30.12 in    
Wind  
Wind Speed 9 mph (NNW)    
Max Wind Speed 18 mph    
Max Gust Speed 31 mph    
Visibility 10 miles    
Events Rain    
Averages and records for this station are not official NWS values.
T = Trace of Precipitation, MM = Missing Value Source: NWS Daily Summary

Daily Weather History Graph

Daily Weather History Graph

Search for Another Location

Airport or City:

Trip Planner

Search our weather history database for the weather conditions in past years. The results will help you decide how hot, cold, wet, or windy it might be!

Date:

Astronomy

Dec. 15, 2013 Rise Set
Actual Time 6:34 AM CST 4:45 PM CST
Civil Twilight 6:08 AM CST 5:11 PM CST
Nautical Twilight 5:38 AM CST 5:41 PM CST
Astronomical Twilight 5:08 AM CST 6:11 PM CST
Moon 3:44 PM CST (12/15) 4:55 AM CST (12/15)
Length of Visible Light 11h 03m
Length of Day
10h 10m
Waxing Gibbous, 98% of the Moon is Illuminated
Dec 15
Waxing Gibbous
Dec 17
Full
Dec 25
Last Quarter
Jan 1
New
Jan 7
First Quarter

Hourly Weather History & Observations

Time (CST) Temp. Windchill Dew Point Humidity Pressure Visibility Wind Dir Wind Speed Gust Speed Precip Events Conditions
12:15 AM 58.5 °F - 55.4 °F 90% 29.92 in 10.0 mi Calm Calm - 0.01 in Rain Rain
12:35 AM 57.4 °F - 55.2 °F 92% 29.91 in 10.0 mi Calm Calm - 0.02 in Rain Light Rain
12:55 AM 57.6 °F - 56.1 °F 95% 29.92 in 10.0 mi WNW 4.6 mph - 0.03 in Rain Rain
1:15 AM 57.2 °F - 55.2 °F 93% 29.95 in 10.0 mi West 5.8 mph - N/A   Overcast
1:35 AM 56.8 °F - 54.7 °F 92% 29.92 in 10.0 mi West 3.5 mph - 0.01 in   Overcast
1:55 AM 56.5 °F - 55.4 °F 96% 29.95 in 10.0 mi WNW 5.8 mph - 0.01 in   Overcast
2:15 AM 55.9 °F - 54.7 °F 96% 29.96 in 10.0 mi NW 12.7 mph 16.1 mph N/A   Overcast
2:35 AM 52.5 °F - 51.4 °F 96% 29.97 in 10.0 mi NNW 13.8 mph 20.7 mph N/A Rain Light Rain
2:55 AM 51.1 °F - 49.8 °F 95% 29.97 in 10.0 mi NNW 12.7 mph 18.4 mph N/A   Overcast
3:15 AM 50.5 °F - 49.5 °F 96% 29.99 in 10.0 mi NW 11.5 mph 16.1 mph N/A   Overcast
3:35 AM 49.3 °F - 48.0 °F 95% 29.99 in 7.0 mi NW 11.5 mph 20.7 mph N/A   Overcast
3:55 AM 48.7 °F - 48.0 °F 97% 30.00 in 5.0 mi NW 13.8 mph - N/A   Overcast
4:15 AM 48.2 °F - 45.7 °F 91% 30.00 in 10.0 mi NNW 13.8 mph 23.0 mph N/A   Overcast
4:35 AM 46.8 °F - 44.4 °F 92% 30.01 in 10.0 mi NW 15.0 mph 23.0 mph N/A   Mostly Cloudy
4:55 AM 46.4 °F 39.5 °F 44.1 °F 92% 30.01 in 10.0 mi NNW 17.3 mph 23.0 mph N/A   Overcast
5:15 AM 45.9 °F 40.4 °F 43.5 °F 92% 30.03 in 10.0 mi NNW 11.5 mph 21.9 mph N/A   Overcast
5:35 AM 45.3 °F 38.7 °F 42.8 °F 91% 30.03 in 10.0 mi NW 15.0 mph 19.6 mph N/A   Overcast
5:55 AM 44.1 °F 36.8 °F 41.2 °F 90% 30.05 in 10.0 mi NNW 16.1 mph 20.7 mph N/A   Overcast
6:15 AM 43.5 °F 35.8 °F 40.6 °F 90% 30.06 in 10.0 mi NNW 17.3 mph 21.9 mph N/A   Overcast
6:35 AM 43.0 °F 36.4 °F 40.3 °F 90% 30.08 in 10.0 mi NNW 12.7 mph 20.7 mph N/A   Overcast
6:55 AM 43.0 °F 35.4 °F 40.1 °F 90% 30.08 in 10.0 mi NNW 16.1 mph 21.9 mph N/A   Overcast
7:15 AM 42.8 °F 34.8 °F 39.2 °F 87% 30.10 in 10.0 mi NNW 17.3 mph 24.2 mph N/A   Overcast
7:35 AM 42.3 °F 36.8 °F 38.3 °F 86% 30.11 in 10.0 mi NNW 9.2 mph 19.6 mph N/A   Overcast
7:55 AM 41.9 °F 35.0 °F 38.1 °F 86% 30.11 in 10.0 mi North 12.7 mph 20.7 mph N/A   Overcast
8:15 AM 41.5 °F 33.2 °F 37.0 °F 84% 30.12 in 10.0 mi North 17.3 mph 23.0 mph N/A   Overcast
8:35 AM 41.5 °F 33.8 °F 36.3 °F 82% 30.14 in 10.0 mi North 15.0 mph 31.1 mph N/A   Overcast
8:55 AM 41.5 °F 32.9 °F 36.5 °F 82% 30.15 in 10.0 mi North 18.4 mph 23.0 mph N/A   Overcast
9:15 AM 41.7 °F 33.7 °F 36.5 °F 82% 30.15 in 10.0 mi NNW 16.1 mph 23.0 mph N/A   Overcast
9:35 AM 42.1 °F 34.9 °F 36.1 °F 79% 30.16 in 10.0 mi NNW 13.8 mph 24.2 mph N/A   Overcast
9:55 AM 42.6 °F 36.8 °F 36.5 °F 79% 30.16 in 10.0 mi North 10.4 mph 17.3 mph N/A   Overcast
10:10 AM 42.3 °F 35.1 °F 36.0 °F 78% 30.16 in 10.0 mi North 13.8 mph 20.7 mph N/A   Overcast
10:35 AM 42.8 °F 36.2 °F 36.5 °F 78% 30.15 in 10.0 mi NNW 12.7 mph 16.1 mph N/A   Overcast
10:55 AM 43.2 °F 37.0 °F 36.5 °F 77% 30.15 in 10.0 mi NNW 11.5 mph 18.4 mph N/A   Overcast
11:15 AM 42.6 °F 37.2 °F 35.4 °F 76% 30.16 in 10.0 mi North 9.2 mph 18.4 mph N/A   Overcast
11:35 AM 43.7 °F 36.9 °F 35.1 °F 72% 30.15 in 10.0 mi North 13.8 mph 18.4 mph N/A   Overcast
11:55 AM 44.1 °F 38.1 °F 35.2 °F 71% 30.14 in 10.0 mi North 11.5 mph - N/A   Overcast
12:15 PM 45.5 °F 40.8 °F 35.6 °F 68% 30.14 in 10.0 mi NNW 9.2 mph - N/A   Overcast
12:35 PM 45.7 °F 41.0 °F 35.4 °F 67% 30.14 in 10.0 mi NNW 9.2 mph - N/A   Mostly Cloudy
12:55 PM 45.1 °F 38.8 °F 36.0 °F 70% 30.14 in 10.0 mi NNW 13.8 mph 19.6 mph N/A   Overcast
1:15 PM 44.8 °F 38.3 °F 35.6 °F 70% 30.13 in 10.0 mi NNW 13.8 mph 17.3 mph N/A   Overcast
1:35 PM 45.5 °F 39.6 °F 35.2 °F 67% 30.13 in 10.0 mi North 12.7 mph 19.6 mph N/A   Mostly Cloudy
1:50 PM 45.5 °F 39.2 °F 35.1 °F 67% 30.13 in 10.0 mi NNW 13.8 mph 18.4 mph N/A   Scattered Clouds
2:15 PM 46.6 °F - 35.6 °F 66% 30.14 in 10.0 mi North 11.5 mph 16.1 mph N/A   Scattered Clouds
2:35 PM 47.3 °F - 35.8 °F 64% 30.13 in 10.0 mi North 11.5 mph - N/A   Scattered Clouds
2:55 PM 47.7 °F - 36.1 °F 64% 30.13 in 10.0 mi NNW 9.2 mph - N/A   Mostly Cloudy
3:15 PM 45.9 °F 40.0 °F 35.4 °F 67% 30.14 in 10.0 mi NNW 12.7 mph - N/A   Scattered Clouds
3:35 PM 44.8 °F 39.4 °F 35.8 °F 71% 30.15 in 10.0 mi NNW 10.4 mph - N/A   Clear
3:55 PM 45.0 °F 41.2 °F 35.6 °F 70% 30.15 in 10.0 mi NNW 6.9 mph - N/A   Clear
4:15 PM 44.8 °F 39.9 °F 35.6 °F 70% 30.15 in 10.0 mi NNW 9.2 mph - N/A   Clear
4:30 PM 44.6 °F 38.4 °F 35.6 °F 71% 30.16 in 10.0 mi North 12.7 mph 17.3 mph N/A   Clear
4:55 PM 42.8 °F 38.6 °F 35.4 °F 75% 30.17 in 10.0 mi North 6.9 mph - N/A   Clear
5:15 PM 41.9 °F 36.9 °F 35.1 °F 77% 30.18 in 10.0 mi North 8.1 mph - N/A   Clear
5:35 PM 41.2 °F 35.5 °F 35.2 °F 79% 30.18 in 10.0 mi NNW 9.2 mph - N/A   Clear
5:55 PM 41.0 °F 34.7 °F 35.6 °F 81% 30.19 in 10.0 mi NNW 10.4 mph - N/A   Scattered Clouds
6:15 PM 40.3 °F 34.4 °F 35.2 °F 82% 30.20 in 10.0 mi NNW 9.2 mph - N/A   Clear
6:35 PM 39.6 °F 34.7 °F 35.2 °F 85% 30.21 in 10.0 mi North 6.9 mph - N/A   Clear
6:55 PM 39.2 °F 32.5 °F 35.1 °F 85% 30.22 in 10.0 mi NNW 10.4 mph - N/A   Clear
7:15 PM 38.8 °F 33.2 °F 34.7 °F 85% 30.22 in 10.0 mi NNW 8.1 mph - N/A   Clear
7:35 PM 38.7 °F 32.4 °F 34.3 °F 84% 30.22 in 10.0 mi North 9.2 mph - N/A   Clear
7:55 PM 38.5 °F 32.7 °F 34.2 °F 84% 30.23 in 10.0 mi North 8.1 mph - N/A   Clear
8:15 PM 38.3 °F 31.9 °F 34.0 °F 84% 30.23 in 10.0 mi North 9.2 mph - N/A   Clear
8:35 PM 37.4 °F 30.8 °F 33.8 °F 87% 30.23 in 10.0 mi North 9.2 mph - N/A   Clear
8:55 PM 37.6 °F 30.5 °F 33.3 °F 84% 30.24 in 10.0 mi North 10.4 mph - N/A   Clear
9:15 PM 37.4 °F 30.3 °F 32.9 °F 84% 30.25 in 10.0 mi North 10.4 mph - N/A   Clear
9:35 PM 37.0 °F 31.0 °F 32.7 °F 84% 30.25 in 10.0 mi North 8.1 mph - N/A   Clear
9:55 PM 36.5 °F 31.0 °F 32.4 °F 85% 30.25 in 10.0 mi North 6.9 mph - N/A   Clear
10:15 PM 35.6 °F 29.9 °F 32.4 °F 88% 30.24 in 10.0 mi North 6.9 mph - N/A   Clear
10:35 PM 35.2 °F 29.5 °F 32.4 °F 89% 30.25 in 10.0 mi NNW 6.9 mph - N/A   Clear
10:55 PM 35.1 °F 31.0 °F 32.2 °F 89% 30.26 in 10.0 mi North 4.6 mph - N/A   Clear
11:15 PM 34.9 °F 29.9 °F 32.4 °F 91% 30.25 in 10.0 mi North 5.8 mph - N/A   Clear
11:35 PM 34.3 °F 27.7 °F 32.2 °F 92% 30.25 in 10.0 mi North 8.1 mph - N/A   Clear
11:55 PM 33.8 °F 27.7 °F 32.0 °F 93% 30.25 in 10.0 mi North 6.9 mph - N/A   Clear